Flag for Cameroon Weather past 2 weeks in Douala, Cameroon

Now
79 °F

Passing clouds.


Feels Like: 83 °F
Forecast: 74 / 88 °F
Wind: No wind

Location: Douala Obs.

Current Time: Dec 21, 2014 at 4:39:43 AM

Latest Report: Dec 21, 2014 at 4:00 AM


Visibility: 5 mi

Pressure: 29.86 "Hg

Humidity: 94%

Dew point: 77 °F

Location of DoualaLocation

Historic Weather in Douala — Graph

°F

Douala temperature yesterday

Maximum temperature yesterday: 91 °F (at 2:00 PM)
Minimum temperature yesterday: 79 °F (at 2:00 AM)
Average temperature yesterday: 83 °F

Past Weeks' High & Low Weather Summary

 TemperatureHumidityPressure
High93 °F (Dec 19, 2:00 PM)100% (Dec 6, 3:00 AM)29.95 "Hg (Dec 6, 3:00 AM)
Low73 °F (Dec 11, 8:00 PM)49% (Dec 16, 3:00 PM)29.74 "Hg (Dec 12, 3:00 PM)
Average82 °F85%29.84 "Hg
* Reported Dec 6 3:00 AM — Dec 21 3:00 AM, Douala, Weather by CustomWeather, © 2014

Note: Actual official high and low records may vary slightly from our data, if they occured in-between our weather recording intervals... More about our weather records

Advertising

Douala weather history for previous 24 hours

 ConditionsComfort  
Time TempWeatherWind HumidityBarometerVisibility
3:00 AM
Dec 21
79 °FPassing clouds.No wind94%29.86 "Hg5 mi
2:00 AM79 °FPassing clouds.No wind94%29.89 "Hg5 mi
1:00 AM79 °FPassing clouds.No wind94%29.89 "Hg5 mi
12:00 AM79 °FPassing clouds.No wind94%29.89 "Hg5 mi
11:00 PM
Dec 20
79 °FPassing clouds.No wind94%29.89 "HgN/A
10:00 PM81 °FPassing clouds.No wind89%29.89 "Hg4 mi
9:00 PM81 °FPassing clouds.5 mph89%29.89 "Hg4 mi
8:00 PM82 °FPassing clouds.5 mph84%29.86 "Hg4 mi
7:00 PM82 °FPassing clouds.5 mph84%29.83 "Hg4 mi
6:00 PM84 °FPassing clouds.7 mph79%29.80 "Hg4 mi
5:00 PM86 °FScattered clouds.9 mph75%29.80 "Hg4 mi
4:00 PM88 °FScattered clouds.7 mph70%29.80 "Hg4 mi
3:00 PM91 °FPartly sunny.7 mph59%29.80 "Hg4 mi
2:00 PM91 °FPartly sunny.7 mph63%29.83 "Hg3 mi
1:00 PM90 °FPartly sunny.5 mph67%29.86 "Hg3 mi
12:00 PM90 °FPartly sunny.7 mph67%29.89 "Hg3 mi
11:00 AM86 °FPartly sunny.No wind75%29.92 "Hg3 mi
10:00 AM84 °FThunderstorms. Partly sunny.5 mph84%29.92 "Hg3 mi
9:00 AM82 °FThunderstorms. Fog.No wind84%29.95 "Hg2 mi
8:00 AM79 °FThunderstorms. Fog.No wind100%29.92 "Hg2 mi
7:00 AM79 °FThunderstorms. Fog.No wind94%29.89 "Hg1 mi
6:00 AM79 °FThunderstorms. Fog.No wind94%29.89 "Hg1 mi
5:00 AM79 °FPassing clouds.No wind94%29.86 "Hg4 mi
4:00 AM79 °FPassing clouds.No wind94%29.86 "Hg4 mi
Weather by CustomWeather, © 2014

See weather overviewHow to use our weather pages